Miscellaneous Local Product
Issued by NWS Hastings, NE

Home | Current Version | Previous Version | Graphics & Text | Print | Product List | Glossary On
Versions: 1 2 3 4 5 6 7 8 9 10 11 12 13 14 15 16 17 18 19 20 21 22 23 24 25 26 27 28 29 30 31 32 33 34 35 36 37 38 39 40 41 42 43 44 45 46 47 48 49 50
000
AXUS43 KGID 222202
MISGRI

GID CWA HOURLY WEATHER ROUNDUP
NATIONAL WEATHER SERVICE HASTINGS NE
500 PM CDT FRI JUL 22 2016

NOTE: "FAIR" INDICATES FEW OR NO CLOUDS BELOW 12,000 FEET WITH NO
SIGNIFICANT WEATHER AND/OR OBSTRUCTIONS TO VISIBILITY.

...SOUTH CENTRAL NEBRASKA...

CITY           SKY/WX    TMP DP  RH WIND       PRES   REMARKS
GRAND ISLAND   CLOUDY    92  70  48 S15       29.93F HX  97
HASTINGS       CLOUDY    88  71  57 SW6       29.95F HX  94
KEARNEY        MOSUNNY   91  75  59 SE13      29.96F HX 102
ORD            SUNNY     96  74  48 SE9       29.92F HX 107
YORK           CLOUDY    84  72  65 S6        29.94F
AURORA         PTSUNNY   88  72  58 S8        29.94F HX  95
LEXINGTON      SUNNY     95  75  51 E9        29.95F HX 107
HOLDREGE       SUNNY     89  69  51 SE10      29.97S HX  93
HEBRON         CLOUDY    83  66  56 S18       29.90F

...NEBRASKA PANHANDLE...

CITY           SKY/WX    TMP DP  RH WIND       PRES   REMARKS
CHADRON        PTSUNNY   87  62  43 SE3       29.98F
ALLIANCE       TSTM      71  63  75 N18G29    30.06R
SCOTTSBLUFF    CLOUDY    92  61  35 E10       30.01F HX  92
SIDNEY         MOSUNNY   99  58  25 S20G25    30.06F HX  98

...WESTERN AND NORTH CENTRAL NEBRASKA...

CITY           SKY/WX    TMP DP  RH WIND       PRES   REMARKS
VALENTINE      MOSUNNY   98  62  30 E12       29.97F HX  99
AINSWORTH      CLOUDY    93  74  53 E7        29.97F HX 104
ONEILL         SUNNY     97  72  44 E9        29.94F HX 105
BROKEN BOW     SUNNY     93  77  59 E9        29.96F HX 107
IMPERIAL       CLOUDY    95  63  34 E13       30.00F HX  96
NORTH PLATTE   SUNNY     95  76  53 E10       29.97F HX 108
MCCOOK         CLOUDY    97  66  36 SE15      29.95F HX 100

...EASTERN NEBRASKA...

CITY           SKY/WX    TMP DP  RH WIND       PRES   REMARKS
NORFOLK        MOSUNNY   90  77  65 SE10      29.92F HX 103
SO SIOUX CITY  MOSUNNY   94  76  55 SE8       29.91F HX 106
TEKAMAH        SUNNY     94  77  57 S10       29.91F HX 108
COLUMBUS       MOSUNNY   90  73  58 S14       29.93S HX  98
ALBION         PTSUNNY   91  78  66 SE7       29.94F HX 105
OMAHA EPPLEY   PTSUNNY   94  80  64 SE17      29.91F HX 113
OFFUTT AFB     SUNNY     93  80  67 SE13      29.92F HX 112
MILLARD        CLOUDY    93  82  71 SE10      29.91F HX 116
LINCOLN        CLOUDY    93  77  59 SW10      29.92F HX 107
NEBRASKA CITY  CLOUDY    91  80  68 S9        29.92F HX 108
BEATRICE       PTSUNNY   88  73  59 SW7       29.93F HX  95
FALLS CITY     SUNNY     96  78  56 S13       29.92F HX 112

...NORTHERN KANSAS...

CITY           SKY/WX    TMP DP  RH WIND       PRES   REMARKS
GOODLAND       SUNNY    101  53  20 S8        30.01F HX  99
HILL CITY      MOSUNNY  100  69  36 SE6       29.93F HX 106
NORTON         CLEAR     99  55  23 E9        29.94F HX  97
SMITH CENTER   SUNNY     88  70  55 E17G25    29.94F HX  92
BELOIT         SUNNY     84  66  54 E16G23    29.93F
HAYS           SUNNY    106  61  23 S17       29.92F HX 107
RUSSELL        SUNNY    105  60  22 S14G21    29.92F HX 106
CONCORDIA      TSTM      77  68  73 N20G29    29.99F
SALINA         CLOUDY   106  62  23 SW14      29.93S HX 108
TOPEKA         SUNNY     99  68  36 S17G23    29.93F HX 104



USA.gov is the U.S. government's official web portal to all federal, state and local government web resources and services.